Temp
26 26 25 24 24 25 27 29 32 33 34 35 36 35 35 33 33 29 32 33 32 31 30 29 28 28 28 27 26 26 25 25 24 23 22 22 21 20 20 19 19 18 18 18 18 18 18 18 18
26 25 24 24 25 26 26 31 32 32 34 35 36 36 34 32 33 32 30 33 33 32 30 28 28 28 27 27 27 26 25 25 24 23 22 22 21 20 20 19 19 17 17 18 18 18 18 18 18
25 24 24 25 25 26 27 32 30 31 32 36 35 37 36 33 33 33 33 32 31 30 28 27 27 27 27 27 26 26 25 24 24 23 22 21 20 20 19 19 18 18 17 18 18 18 18 18 18
24 25 25 25 26 29 30 32 30 29 31 33 35 35 34 35 34 34 32 32 31 30 29 29 28 27 27 27 26 25 25 24 24 23 23 22 21 20 20 19 18 18 18 18 18 18 18 18 18
24 23 23 25 27 30 32 34 29 29 32 33 35 34 32 33 34 34 32 33 33 30 29 29 28 27 27 27 26 25 25 24 24 23 23 22 21 21 20 19 18 18 17 17 18 18 18 18 18
23 24 24 25 28 31 33 34 35 34 35 35 35 34 32 35 34 34 34 32 33 32 30 29 29 28 27 26 26 25 25 24 24 23 23 22 22 21 20 19 19 18 17 18 17 17 17 17 18
23 23 24 26 28 31 33 35 35 35 34 34 35 34 31 32 35 35 35 35 30 32 32 29 29 28 28 27 26 25 25 24 24 23 23 22 22 21 21 20 19 19 19 18 19 18 18 17 17
25 24 25 25 27 29 33 34 34 35 36 36 36 33 33 32 35 35 35 36 36 30 31 30 28 27 27 27 26 25 25 24 24 23 23 22 22 21 21 21 20 19 19 19 19 18 18 18 17
27 22 22 25 27 30 33 33 34 36 35 35 34 34 34 35 36 35 35 35 36 31 30 29 28 27 26 27 26 26 25 24 23 23 22 21 21 21 21 20 20 20 19 19 19 18 18 18 17
25 22 24 27 28 29 31 32 33 34 33 33 34 33 34 35 35 33 33 32 35 36 29 30 28 28 26 25 24 25 25 24 22 22 22 21 21 21 21 20 20 20 20 19 19 19 19 18 17
26 25 27 28 30 30 31 32 34 33 32 33 32 33 33 33 34 33 33 34 35 35 33 28 29 28 25 23 23 23 24 24 22 21 22 21 21 21 21 20 21 21 20 19 19 19 19 19 18
25 27 28 28 29 30 30 32 32 32 31 32 33 33 33 32 32 32 32 34 35 35 35 29 30 28 25 24 23 24 24 23 22 22 22 21 21 21 20 20 21 20 20 20 19 19 19 19 19
26 27 28 29 29 30 31 31 31 32 33 33 33 33 31 30 30 32 34 35 35 34 35 33 30 27 26 24 24 24 23 23 23 23 22 21 21 20 21 21 21 20 20 19 19 19 19 19 19
27 27 28 29 29 30 30 31 31 32 32 32 33 32 31 30 30 31 32 34 34 34 34 33 31 29 26 25 25 24 23 23 23 23 22 21 21 21 21 21 20 20 20 20 19 19 19 19 19
26 26 28 28 29 29 31 30 31 32 32 32 32 32 31 31 31 29 33 33 33 34 34 33 32 30 27 26 25 25 24 24 23 23 22 22 21 21 21 21 20 20 20 19 19 18 18 18 18
24 25 24 27 29 30 29 28 31 31 32 30 32 33 32 30 29 32 33 32 34 34 34 34 32 30 28 26 26 25 25 24 24 23 23 22 21 21 21 20 20 20 19 18 18 18 18 18 18
23 22 23 25 28 29 28 28 30 31 31 31 31 32 32 31 29 31 32 35 35 34 34 33 32 31 29 27 26 26 25 25 24 24 23 22 21 21 21 20 20 19 19 18 17 17 17 17 17
22 23 24 25 27 29 28 28 30 31 31 31 31 31 31 29 28 31 34 34 34 34 34 33 30 29 27 25 25 25 25 24 24 23 22 22 22 22 21 20 19 19 18 17 17 16 17 17 17
24 24 25 26 28 28 28 28 29 30 29 29 29 29 29 30 28 30 31 33 33 32 32 30 29 26 24 24 24 24 23 24 24 22 23 22 22 21 20 21 20 18 18 17 17 17 17 16 17
23 23 24 26 28 27 28 28 29 30 30 30 30 27 27 27 28 28 30 32 31 30 29 28 27 24 23 22 23 23 23 23 23 23 23 22 21 21 21 20 19 18 18 18 17 17 17 17 17
22 23 23 24 26 27 27 26 27 28 29 29 29 28 27 26 26 26 27 27 26 26 26 26 25 23 22 22 23 23 23 23 23 23 23 22 22 21 20 19 19 18 17 17 16 16 16 16 17
21 25 25 25 25 23 26 24 26 28 29 30 30 29 30 29 30 28 27 22 24 24 25 25 23 23 22 23 23 23 22 21 22 23 22 21 21 20 20 19 18 17 17 16 16 16 16 16 16
23 25 25 25 24 24 25 23 27 26 27 27 28 27 26 26 26 26 25 22 22 24 23 23 23 23 23 23 23 23 23 23 23 22 22 21 20 19 19 18 18 17 17 16 16 16 16 16 16
24 24 24 24 23 22 25 25 26 26 27 28 28 28 29 28 27 25 22 22 22 23 22 22 22 22 23 23 23 23 23 23 21 21 20 20 19 19 18 18 18 17 17 16 16 16 16 16 16
22 21 19 20 21 21 25 24 26 26 27 29 28 28 28 25 23 23 22 21 21 20 21 21 22 22 22 23 23 23 22 22 21 21 20 20 19 18 18 17 18 17 17 17 17 17 17 17 16
20 21 20 18 20 22 25 24 26 28 29 28 29 28 25 23 23 22 21 21 21 20 20 21 21 21 22 22 22 21 21 21 21 21 20 19 19 18 18 18 18 17 17 17 17 17 17 17 17
21 20 23 21 23 23 24 26 27 29 29 28 29 27 24 23 23 22 21 21 21 20 20 21 21 21 21 22 21 21 21 21 20 19 19 19 19 18 18 18 18 18 18 18 17 17 17 17 18
21 23 21 22 20 20 24 25 25 27 28 29 27 26 24 23 23 22 21 21 21 21 21 21 21 21 21 21 21 21 20 20 20 19 19 19 18 18 18 18 18 18 18 18 18 17 17 17 18
19 20 21 22 21 21 21 24 27 28 29 27 26 26 25 24 23 22 22 21 21 21 21 21 21 21 22 21 21 22 21 20 20 19 19 19 19 19 19 19 18 19 18 18 17 17 17 18 18
18 17 21 20 21 23 22 24 28 28 27 27 26 26 25 24 24 23 22 22 21 21 21 22 22 22 22 22 22 22 21 20 19 19 19 19 19 19 19 19 19 19 18 18 17 17 17 18 17
Height
781 782 783 782 807 799 799 778 755 752 743 726 720 729 737 735 748 781 739 740 744 748 753 757 760 764 768 771 774 777 780 782 785 787 789 791 792 795 796 797 799 801 801 801 803 804 804 804 803
781 783 784 784 809 815 801 758 766 751 733 721 722 726 737 752 730 737 739 740 743 747 751 755 760 764 767 770 773 776 778 781 784 786 788 790 792 794 795 796 798 801 801 801 802 803 804 803 803
781 784 790 794 799 809 794 753 755 745 741 734 737 721 727 741 731 734 738 739 743 748 754 758 763 766 769 771 773 776 779 781 784 785 788 790 792 793 794 796 798 799 800 801 802 803 803 803 802
784 781 783 798 795 772 765 750 741 751 744 742 731 739 728 726 729 734 738 740 743 747 751 755 759 763 766 769 772 776 779 780 783 784 786 789 791 791 792 795 797 798 798 799 800 801 801 801 801
785 781 803 795 783 762 744 734 742 753 749 734 730 742 739 730 731 734 737 739 740 741 745 749 753 756 760 765 770 773 776 778 781 782 783 786 788 789 791 792 794 795 796 797 798 798 799 799 799
789 778 805 802 780 752 738 728 729 735 727 724 727 731 738 728 729 732 734 733 735 738 741 744 748 751 754 759 763 768 772 775 777 779 780 782 784 786 788 789 790 791 793 794 795 796 796 796 796
790 793 799 789 778 758 739 723 728 730 729 731 722 740 736 728 726 727 728 729 729 733 734 738 741 745 749 753 757 762 767 771 773 776 777 778 780 781 783 785 787 788 789 790 791 792 792 793 793
777 786 792 786 779 763 730 731 725 725 727 716 716 742 743 727 726 724 724 726 726 730 732 734 738 741 744 748 751 756 761 766 769 772 773 774 776 777 779 781 783 785 786 787 788 788 788 788 789
767 795 799 786 773 755 727 735 721 714 721 720 718 724 722 721 721 721 723 724 723 727 727 729 733 734 738 741 743 750 754 760 764 767 769 771 772 774 776 777 779 782 782 783 784 784 785 784 785
770 787 777 755 753 753 736 736 728 728 729 731 725 718 723 717 718 719 720 722 722 722 723 726 728 729 732 736 739 742 747 750 756 761 764 765 768 771 773 774 775 777 778 779 781 781 782 782 782
759 763 754 750 745 740 739 733 723 728 736 728 730 723 717 715 719 715 717 718 720 720 719 721 724 726 728 732 734 737 740 743 748 756 759 762 765 768 770 771 772 774 775 777 778 778 779 779 780
763 746 746 745 741 740 740 729 728 725 726 715 714 714 713 715 713 712 712 713 714 715 715 713 718 721 724 729 729 731 733 737 741 749 755 759 761 764 766 768 769 771 772 774 775 776 777 777 778
748 744 741 736 736 734 730 730 725 720 712 708 708 710 711 709 707 707 705 706 707 709 709 710 711 713 718 722 723 725 728 731 737 745 749 754 758 761 764 765 766 768 769 771 772 774 774 775 776
740 740 735 733 732 729 733 725 720 715 709 707 707 707 706 704 703 701 700 699 699 702 703 704 705 707 712 716 717 719 723 727 734 739 744 750 755 758 761 763 764 765 767 768 770 772 771 772 774
740 747 735 726 725 728 726 723 718 708 706 705 705 702 698 696 694 693 692 690 692 697 698 699 700 703 707 710 712 715 718 723 729 735 741 747 752 756 759 761 761 762 764 765 767 768 769 769 770
749 747 751 726 721 716 731 708 710 704 704 705 700 696 693 691 687 686 686 687 687 688 690 691 693 697 701 706 710 714 717 721 725 732 738 744 748 752 755 757 759 761 762 762 764 764 765 766 767
742 755 745 731 713 719 725 710 704 698 698 697 694 689 686 682 681 681 682 681 679 680 681 685 686 690 695 701 707 712 716 719 724 731 735 741 745 749 752 754 756 758 758 758 759 760 761 762 763
743 744 727 721 721 715 720 714 699 692 693 690 685 680 677 678 678 671 673 673 675 675 677 680 682 686 691 697 705 711 715 719 724 730 736 739 741 745 749 751 753 754 754 754 755 755 757 758 758
722 722 722 716 712 718 714 710 700 686 688 688 682 679 675 668 662 664 667 669 669 671 672 675 678 682 688 695 701 708 712 717 723 729 733 736 739 743 747 748 750 750 750 751 751 752 753 754 755
730 728 719 709 703 709 705 706 691 678 678 675 673 673 670 667 663 660 660 661 663 665 668 672 675 681 686 692 698 705 711 717 721 728 733 734 738 741 744 745 746 747 747 747 747 748 749 751 753
723 722 721 723 714 701 706 711 697 679 671 668 664 663 661 660 660 656 653 653 659 664 665 668 676 681 685 692 700 707 712 717 722 726 729 732 735 738 741 743 743 744 743 744 745 745 746 748 751
721 708 711 715 723 730 709 733 696 682 674 667 659 657 651 649 644 643 644 650 654 661 665 669 677 683 688 694 700 704 709 715 720 724 727 731 734 737 739 740 740 741 741 742 742 743 745 746 747
702 701 708 708 718 720 713 728 677 679 681 672 661 655 649 642 638 637 637 646 654 661 666 672 679 685 689 695 700 705 710 714 719 722 726 730 733 735 737 737 738 738 739 739 740 741 742 743 744
696 703 707 708 717 738 702 712 669 684 675 663 653 646 638 634 629 633 639 648 656 661 669 675 681 686 691 696 701 706 710 714 718 722 726 729 732 734 735 735 736 737 737 738 739 739 739 739 740
697 715 738 741 736 717 693 701 673 663 654 645 647 641 635 630 632 637 642 652 658 664 670 677 682 688 693 698 703 708 711 715 718 722 725 727 730 732 733 733 734 735 736 736 737 737 737 737 738
702 705 726 740 725 707 690 695 668 637 636 633 631 632 635 637 637 643 649 653 661 666 671 678 684 689 694 700 705 710 713 716 719 721 724 727 729 730 731 732 733 734 735 735 736 736 736 736 736
696 704 681 707 699 707 691 669 650 634 633 631 629 632 638 639 642 647 654 657 663 669 674 680 686 691 697 702 708 712 714 717 720 722 725 727 728 729 731 732 732 733 733 734 734 734 735 735 735
684 678 704 698 725 727 687 679 670 641 630 623 630 633 638 640 645 650 655 660 667 672 677 683 688 694 699 705 709 713 715 719 721 724 725 726 729 730 731 731 731 732 732 733 732 732 733 733 734
691 688 691 686 697 709 710 686 631 625 616 621 627 627 633 639 645 650 656 663 669 674 679 684 690 696 701 706 710 713 716 719 722 723 725 727 729 729 731 731 731 732 732 732 731 731 731 731 732
690 694 682 700 694 685 690 673 616 609 608 608 618 623 629 634 643 648 656 664 670 675 680 686 692 698 703 707 710 712 716 718 721 724 725 727 729 730 731 731 732 732 732 731 730 730 729 730 732
Wind_Speed
8 4 1 2 3 2 4 8 10 7 7 4 6 6 2 3 6 5 19 26 23 27 33 32 29 26 23 21 19 17 15 13 11 10 9 8 6 5 5 3 2 3 3 3 1 1 1 1 1
7 3 2 3 1 2 5 9 1 4 1 13 8 1 6 7 14 8 14 22 20 25 34 33 30 27 24 22 20 18 17 15 13 11 9 8 7 6 5 3 3 4 4 4 3 3 3 3 3
8 5 1 3 4 6 5 6 6 6 7 9 4 3 2 5 5 7 25 24 23 24 30 30 29 26 24 22 21 19 18 16 13 11 9 8 7 6 4 3 4 6 6 5 5 6 6 6 8
4 2 3 2 9 13 11 11 5 4 9 21 11 2 4 6 4 13 27 23 21 20 23 29 31 29 26 24 22 21 18 16 14 12 10 8 6 4 3 5 7 7 7 7 8 9 9 8 9
7 2 3 4 9 14 14 13 12 13 12 25 14 6 8 14 24 16 24 23 22 23 23 28 33 33 30 27 25 23 20 19 17 14 12 10 8 5 6 7 8 8 8 9 10 12 12 12 12
3 2 2 5 11 17 16 14 6 8 2 7 4 8 4 23 20 17 16 23 27 27 24 26 34 34 34 31 28 26 23 21 20 18 15 13 10 8 8 8 8 9 10 11 10 12 12 12 12
4 2 6 8 15 19 16 9 4 3 6 4 4 5 7 8 19 20 19 16 32 31 33 30 33 38 36 35 32 29 27 24 23 21 18 16 14 11 9 8 9 10 10 12 14 15 15 14 15
2 1 5 6 13 20 16 11 8 6 1 2 5 3 4 5 17 18 17 9 8 39 34 35 36 37 39 37 35 33 30 28 26 24 21 19 17 14 11 8 10 11 11 11 13 15 15 15 15
7 3 5 11 11 16 17 12 10 3 4 4 4 4 8 21 14 7 5 4 9 15 39 41 38 39 40 41 39 36 33 31 29 26 24 21 20 16 12 10 11 13 12 12 12 14 15 14 14
13 6 10 12 15 17 14 10 18 15 7 12 13 19 32 30 4 5 5 8 15 21 29 37 41 41 42 41 42 40 37 35 33 30 27 25 21 16 12 11 11 14 13 12 12 9 9 12 14
18 22 16 16 19 21 20 20 14 16 8 6 5 10 14 13 9 1 5 12 19 22 5 33 41 41 42 39 40 41 40 39 37 33 29 27 21 17 13 17 15 15 17 15 13 11 11 11 8
18 20 20 15 20 23 23 20 19 17 11 8 10 7 4 8 5 7 8 14 23 25 7 15 29 41 42 37 39 39 38 39 39 33 31 27 23 19 19 16 15 15 16 16 15 12 13 13 11
24 21 18 19 20 23 26 26 22 22 17 11 10 13 11 9 9 15 17 17 23 23 11 11 24 39 44 40 40 37 37 35 32 31 32 30 25 22 22 18 16 12 10 8 11 14 9 10 14
15 17 21 17 22 22 24 26 21 19 11 15 16 18 12 10 10 11 17 24 27 16 10 15 23 39 46 43 42 40 36 35 30 29 28 31 28 25 18 17 17 16 14 13 13 11 9 10 13
18 20 19 23 22 26 21 28 29 19 16 22 16 15 11 11 14 12 24 28 18 10 10 13 22 35 44 45 41 39 35 33 31 31 29 32 30 23 17 16 11 12 14 14 15 14 13 13 14
18 15 21 22 22 23 12 40 20 15 20 15 21 23 17 11 12 18 27 17 14 15 14 17 23 34 45 43 38 34 31 33 32 31 27 30 29 21 18 17 15 12 13 14 15 18 18 17 16
17 21 22 24 22 18 14 33 17 16 19 22 25 24 20 18 10 16 17 21 24 18 15 18 23 31 42 43 38 26 26 23 30 27 22 23 22 20 17 16 15 13 14 14 14 15 16 17 19
12 21 24 29 11 18 23 31 29 29 24 24 22 19 18 13 11 14 26 20 17 15 14 20 29 31 37 35 34 26 22 22 21 23 21 21 20 18 12 15 15 14 15 15 15 15 16 18 18
15 18 21 20 18 15 23 25 25 21 12 14 14 14 15 14 11 15 10 14 18 11 11 23 26 30 33 33 31 28 22 21 21 13 19 16 16 14 15 11 11 13 15 15 14 15 17 17 16
19 23 24 15 12 13 20 18 22 23 14 17 22 11 11 8 8 9 13 20 15 18 17 19 25 32 32 31 28 29 24 24 20 14 16 16 17 14 11 13 11 12 15 15 15 15 12 12 11
25 26 20 19 10 17 15 15 19 17 15 8 10 9 9 12 11 10 10 10 19 19 21 21 24 32 29 31 26 23 20 18 19 16 17 18 15 13 9 9 9 10 11 11 9 8 10 11 11
24 15 21 18 11 16 10 16 21 13 17 19 18 14 19 14 15 13 10 7 22 21 22 24 23 29 25 29 26 27 19 15 16 21 20 17 15 11 7 8 8 9 7 7 6 7 10 11 12
24 15 18 13 16 17 19 9 18 9 8 9 10 11 11 13 13 12 8 13 23 24 23 22 26 27 25 26 22 20 19 17 19 14 15 16 13 10 8 6 7 5 6 7 7 8 10 12 13
17 16 18 16 12 11 19 15 25 14 11 9 9 10 12 11 9 6 14 23 22 27 26 27 27 22 22 22 20 19 15 12 19 20 19 16 12 8 7 8 6 4 5 6 7 6 8 10 13
16 12 6 10 10 17 14 12 18 7 13 22 15 13 6 8 13 18 19 15 19 22 27 27 25 21 20 22 19 15 16 15 15 15 12 12 8 5 7 6 3 6 5 5 5 6 7 8 9
13 15 9 13 12 17 13 8 11 19 12 10 10 8 8 11 13 12 14 14 18 22 26 24 24 24 20 20 17 14 13 12 10 7 9 10 7 5 6 6 5 4 4 5 6 6 7 6 6
19 16 20 17 10 8 5 13 21 26 20 11 14 10 11 14 14 15 12 11 19 22 24 26 27 22 20 19 19 14 10 10 13 10 8 8 7 8 8 6 3 3 4 4 6 8 8 6 4
18 11 7 11 13 13 7 13 12 12 19 16 8 15 13 14 15 13 11 13 20 23 28 27 25 22 21 19 19 15 16 12 9 9 10 8 10 7 10 4 3 3 0 2 4 5 6 8 6
7 16 11 9 7 11 6 10 11 19 15 11 12 17 17 16 16 13 12 17 20 24 27 28 25 22 22 19 18 14 13 13 11 9 9 10 8 13 7 5 4 2 1 2 2 3 4 6 4
18 21 16 9 19 9 4 9 8 6 7 10 14 17 16 18 15 15 16 13 17 21 25 26 25 23 22 19 16 15 14 12 11 9 10 12 9 11 7 5 6 2 2 2 1 2 8 5 4
Wind_Direction
265 258 30 338 29 195 241 258 244 335 33 13 37 52 0 17 97 143 150 178 157 164 173 175 176 173 168 163 163 162 160 154 149 146 142 140 140 142 136 132 147 170 164 150 189 234 270 274 259
245 182 272 266 172 267 268 255 142 2 26 5 356 242 82 89 83 106 111 152 157 167 175 176 178 176 172 169 170 170 168 164 159 154 151 152 155 158 156 158 196 205 197 197 215 242 260 257 248
222 223 350 185 201 211 229 276 141 141 336 314 29 358 37 131 101 123 152 156 157 163 175 177 179 180 178 177 176 179 177 172 169 163 159 164 170 168 168 197 217 221 220 225 233 244 253 260 261
210 233 291 249 257 265 249 270 117 91 31 310 261 126 76 114 91 117 146 154 156 162 177 185 183 185 184 184 184 186 185 182 181 175 170 176 184 187 198 225 230 233 232 240 246 250 251 256 257
245 267 247 234 261 268 269 250 156 158 197 216 216 237 124 94 113 119 143 161 179 177 183 191 189 187 188 188 190 191 192 191 191 188 182 185 189 204 221 229 234 239 242 252 257 262 259 258 248
269 158 266 239 260 263 276 275 204 199 278 327 41 158 146 135 136 145 153 181 192 186 192 187 194 193 192 191 192 195 197 198 199 197 193 193 194 205 220 229 237 243 248 253 259 266 265 264 252
238 358 241 265 269 279 274 334 39 53 13 47 51 85 155 150 149 164 178 206 187 192 197 190 192 197 197 194 195 196 200 203 205 204 203 202 206 213 220 239 242 253 257 257 269 267 262 258 257
219 171 287 269 269 280 287 316 315 341 16 146 101 22 163 230 181 183 178 192 273 189 197 197 193 194 200 198 199 198 201 207 210 208 209 210 214 222 228 242 245 252 253 253 266 267 268 265 252
205 224 222 249 254 264 299 310 326 355 17 343 353 83 313 319 284 23 34 285 258 181 199 196 196 196 200 201 201 202 202 209 214 214 214 215 219 226 239 240 249 248 242 252 268 271 270 264 256
216 221 219 232 261 278 288 306 303 306 31 314 292 351 302 298 348 23 349 319 313 299 198 203 200 200 200 202 204 204 203 208 214 215 216 217 221 227 233 242 236 255 255 249 259 270 264 258 253
230 238 244 250 260 268 285 294 291 299 298 238 247 234 244 237 252 70 327 309 296 281 214 201 202 204 202 198 203 206 206 209 214 216 219 221 221 223 210 232 240 252 246 246 248 246 247 253 252
243 239 242 249 254 271 275 283 285 286 279 284 297 271 245 264 254 213 236 256 272 272 257 210 209 208 200 195 203 205 205 211 215 215 221 219 214 217 216 223 239 246 246 241 241 248 246 254 240
236 242 245 251 245 254 267 271 273 274 286 284 291 297 279 266 256 233 224 245 262 253 238 217 214 209 201 194 201 204 204 207 211 217 220 216 214 211 219 232 232 232 200 226 242 243 221 242 224
262 248 252 245 249 254 258 266 270 268 273 288 285 282 272 259 257 250 238 238 252 234 218 225 214 208 202 195 201 202 204 207 207 215 216 213 208 210 223 231 228 229 232 250 240 234 227 212 223
268 271 270 249 247 248 261 265 256 270 274 269 267 263 263 268 261 245 257 245 234 204 237 231 213 207 203 199 199 200 200 204 205 208 211 207 206 209 216 229 232 240 252 247 249 244 239 244 253
268 275 258 255 254 251 249 261 261 259 257 268 285 277 270 255 250 270 264 247 200 212 233 235 210 207 205 199 196 198 195 199 203 201 198 201 202 204 215 232 240 248 262 247 247 252 250 247 248
233 239 251 256 238 252 228 267 270 272 264 257 257 258 261 255 254 268 260 245 242 238 256 216 209 205 206 205 189 180 181 184 182 179 179 182 191 199 217 236 237 249 256 250 256 252 246 242 245
216 223 235 247 243 233 241 252 264 262 261 259 259 251 250 246 236 248 268 268 238 247 256 228 200 198 200 196 192 186 180 180 171 189 200 200 200 214 226 232 230 244 254 262 261 251 243 239 243
261 233 246 247 243 256 254 259 266 266 250 262 259 261 246 242 236 242 244 249 249 245 231 207 189 191 183 173 174 179 164 174 185 171 186 188 194 200 212 238 253 256 261 268 261 256 245 237 239
248 262 259 265 253 244 247 256 252 253 257 251 250 254 254 261 228 237 252 259 229 181 166 166 175 178 174 167 167 176 170 164 171 180 191 182 180 201 234 250 256 261 272 272 271 265 249 242 214
230 238 252 259 293 282 295 288 282 282 277 273 259 256 231 218 228 235 235 213 161 152 151 149 166 168 163 162 161 164 168 167 190 198 197 200 200 204 220 239 252 266 265 267 265 242 225 225 221
243 236 246 261 252 255 247 273 262 267 268 258 259 254 259 260 259 245 233 149 152 154 143 142 150 154 152 159 162 165 160 165 188 207 200 183 186 200 216 240 257 264 260 257 254 246 235 236 231
251 229 258 254 243 261 258 260 263 203 248 282 267 260 252 243 231 223 188 134 134 139 139 146 149 148 155 163 161 168 156 154 178 164 158 168 168 183 206 231 258 248 235 249 251 240 234 231 229
266 241 246 257 260 269 244 228 261 242 254 250 259 259 259 257 245 120 114 121 125 135 137 141 146 139 147 157 156 151 150 166 146 149 150 156 167 199 225 232 241 238 250 250 248 241 239 235 233
250 236 248 234 231 239 221 240 249 246 227 242 244 256 267 109 111 123 126 130 127 126 131 142 143 140 132 147 154 154 127 126 126 139 148 155 170 209 219 220 220 205 241 240 234 237 238 238 237
253 225 215 217 214 250 256 248 252 244 240 240 237 231 125 105 111 114 123 125 129 128 132 140 142 140 131 143 141 133 131 133 147 141 149 156 170 196 195 189 211 217 236 234 245 241 244 250 229
252 250 224 247 276 247 240 243 263 259 256 240 240 157 127 122 120 123 123 124 127 131 139 139 146 142 138 143 138 138 136 132 128 118 136 147 159 171 166 185 174 216 234 242 236 225 232 241 248
232 253 236 224 233 256 233 258 256 288 236 237 177 136 129 123 121 126 122 122 131 137 142 145 148 147 147 151 145 145 137 129 128 132 139 133 154 168 172 181 169 210 141 279 243 230 234 226 218
283 240 247 236 202 235 246 265 256 238 222 216 160 143 139 135 134 133 125 129 137 137 144 149 153 155 155 152 154 157 153 144 147 136 139 152 165 167 183 196 194 142 39 85 146 179 210 215 207
280 286 226 233 222 246 215 260 294 98 113 147 149 143 137 134 136 129 131 136 132 138 144 151 156 157 159 164 170 165 148 153 145 151 146 160 160 188 207 238 227 157 78 88 66 209 218 224 68